QPF
0.00 0.00 0.00 0.00 0.00 0.00 0.00 0.00 0.00 0.00 0.00 0.00 0.00 0.00 0.00 0.00 0.00 0.01 0.13 0.04 0.00 0.00 0.00 0.00 0.00 0.00 0.00 0.00 0.00 0.00 0.00 0.00 0.00 0.00 0.00 0.00 0.00 0.00 0.00 0.00 0.00 0.00 0.00 0.00 0.00 0.00 0.00 0.00 0.00
0.00 0.00 0.00 0.00 0.00 0.00 0.00 0.00 0.00 0.00 0.00 0.00 0.00 0.00 0.00 0.00 0.00 0.00 0.03 0.06 0.01 0.02 0.00 0.00 0.00 0.00 0.00 0.00 0.00 0.00 0.00 0.00 0.00 0.00 0.00 0.00 0.00 0.00 0.00 0.00 0.00 0.00 0.00 0.00 0.00 0.00 0.00 0.00 0.00
0.00 0.00 0.00 0.00 0.00 0.00 0.00 0.00 0.00 0.00 0.00 0.00 0.00 0.00 0.00 0.00 0.00 0.00 0.00 0.01 0.00 0.00 0.00 0.00 0.00 0.00 0.00 0.00 0.00 0.00 0.00 0.00 0.00 0.00 0.00 0.00 0.00 0.00 0.00 0.00 0.00 0.00 0.00 0.00 0.00 0.00 0.00 0.00 0.00
0.00 0.00 0.00 0.00 0.00 0.00 0.00 0.00 0.00 0.00 0.00 0.00 0.00 0.00 0.00 0.00 0.00 0.00 0.00 0.00 0.00 0.00 0.00 0.00 0.00 0.00 0.00 0.00 0.00 0.00 0.00 0.00 0.00 0.00 0.00 0.00 0.00 0.00 0.00 0.00 0.00 0.00 0.00 0.00 0.00 0.00 0.00 0.00 0.00
0.00 0.00 0.00 0.00 0.00 0.00 0.00 0.00 0.00 0.00 0.00 0.00 0.00 0.00 0.00 0.00 0.00 0.00 0.00 0.00 0.00 0.00 0.00 0.00 0.00 0.00 0.00 0.00 0.00 0.00 0.00 0.00 0.00 0.00 0.00 0.00 0.00 0.01 0.01 0.00 0.01 0.00 0.00 0.00 0.00 0.00 0.00 0.00 0.00
0.00 0.00 0.00 0.00 0.00 0.00 0.00 0.00 0.00 0.00 0.00 0.00 0.00 0.00 0.00 0.00 0.00 0.00 0.00 0.00 0.00 0.00 0.00 0.00 0.00 0.00 0.00 0.00 0.00 0.00 0.00 0.00 0.00 0.00 0.00 0.00 0.00 0.01 0.02 0.03 0.04 0.02 0.02 0.01 0.00 0.01 0.01 0.00 0.00
0.00 0.00 0.00 0.00 0.00 0.00 0.00 0.00 0.00 0.00 0.00 0.00 0.00 0.00 0.00 0.00 0.00 0.00 0.00 0.00 0.00 0.00 0.00 0.00 0.00 0.00 0.00 0.00 0.00 0.00 0.00 0.00 0.00 0.00 0.00 0.00 0.00 0.00 0.00 0.02 0.04 0.02 0.02 0.00 0.00 0.02 0.03 0.01 0.00
0.00 0.00 0.00 0.00 0.00 0.00 0.00 0.00 0.00 0.00 0.00 0.00 0.00 0.00 0.00 0.00 0.00 0.00 0.00 0.00 0.00 0.00 0.00 0.00 0.00 0.00 0.00 0.00 0.00 0.00 0.00 0.00 0.00 0.00 0.00 0.00 0.00 0.00 0.00 0.00 0.00 0.00 0.00 0.00 0.00 0.02 0.06 0.03 0.01
0.00 0.00 0.00 0.00 0.00 0.00 0.00 0.00 0.00 0.00 0.00 0.00 0.00 0.00 0.00 0.00 0.00 0.00 0.00 0.00 0.00 0.00 0.00 0.00 0.00 0.00 0.00 0.00 0.00 0.00 0.00 0.00 0.00 0.00 0.00 0.00 0.00 0.00 0.00 0.00 0.00 0.00 0.00 0.00 0.00 0.01 0.05 0.04 0.05
0.00 0.00 0.00 0.00 0.00 0.00 0.00 0.00 0.00 0.00 0.00 0.00 0.00 0.00 0.00 0.00 0.00 0.00 0.00 0.00 0.00 0.00 0.00 0.00 0.00 0.00 0.00 0.00 0.00 0.00 0.00 0.00 0.00 0.00 0.00 0.00 0.00 0.00 0.00 0.00 0.00 0.00 0.00 0.00 0.00 0.00 0.00 0.00 0.01
0.00 0.00 0.00 0.00 0.00 0.00 0.00 0.00 0.00 0.00 0.00 0.00 0.00 0.00 0.00 0.00 0.00 0.00 0.00 0.00 0.00 0.00 0.00 0.00 0.00 0.00 0.00 0.00 0.00 0.00 0.00 0.00 0.00 0.00 0.00 0.00 0.00 0.00 0.00 0.00 0.00 0.00 0.00 0.00 0.00 0.00 0.00 0.00 0.00
0.00 0.00 0.00 0.00 0.00 0.00 0.00 0.00 0.00 0.00 0.00 0.00 0.00 0.00 0.00 0.00 0.00 0.00 0.00 0.00 0.00 0.00 0.00 0.00 0.00 0.00 0.00 0.00 0.00 0.00 0.00 0.00 0.00 0.00 0.00 0.00 0.00 0.00 0.00 0.00 0.00 0.00 0.00 0.00 0.00 0.00 0.00 0.00 0.00
0.00 0.00 0.00 0.00 0.00 0.00 0.00 0.00 0.00 0.00 0.00 0.00 0.00 0.00 0.00 0.00 0.00 0.00 0.00 0.00 0.00 0.00 0.00 0.00 0.00 0.00 0.00 0.00 0.00 0.00 0.00 0.00 0.00 0.00 0.00 0.00 0.00 0.00 0.00 0.00 0.00 0.00 0.00 0.00 0.00 0.00 0.00 0.00 0.00
0.00 0.00 0.00 0.00 0.00 0.00 0.00 0.00 0.00 0.00 0.00 0.00 0.00 0.00 0.00 0.00 0.00 0.00 0.00 0.00 0.00 0.00 0.00 0.00 0.00 0.00 0.00 0.00 0.00 0.00 0.00 0.00 0.00 0.00 0.00 0.00 0.00 0.00 0.00 0.00 0.00 0.00 0.00 0.00 0.00 0.00 0.00 0.00 0.00
0.00 0.00 0.00 0.00 0.00 0.00 0.00 0.00 0.00 0.00 0.00 0.00 0.00 0.00 0.00 0.00 0.00 0.00 0.00 0.00 0.00 0.00 0.00 0.00 0.00 0.00 0.00 0.00 0.00 0.00 0.00 0.00 0.00 0.00 0.00 0.00 0.00 0.00 0.00 0.00 0.00 0.00 0.00 0.00 0.00 0.00 0.00 0.00 0.00
0.00 0.00 0.00 0.00 0.00 0.00 0.00 0.00 0.00 0.00 0.00 0.00 0.00 0.00 0.00 0.00 0.00 0.00 0.00 0.00 0.00 0.00 0.00 0.00 0.00 0.00 0.00 0.00 0.00 0.00 0.00 0.00 0.00 0.00 0.00 0.00 0.00 0.00 0.00 0.00 0.00 0.00 0.00 0.00 0.00 0.00 0.00 0.00 0.00
0.00 0.00 0.00 0.00 0.00 0.00 0.00 0.00 0.00 0.00 0.00 0.00 0.00 0.00 0.00 0.00 0.00 0.00 0.00 0.00 0.00 0.00 0.00 0.00 0.00 0.00 0.00 0.00 0.00 0.00 0.00 0.00 0.00 0.00 0.00 0.00 0.00 0.00 0.00 0.00 0.00 0.00 0.00 0.00 0.00 0.00 0.00 0.00 0.00
0.00 0.00 0.00 0.00 0.00 0.00 0.00 0.00 0.00 0.00 0.00 0.00 0.00 0.00 0.00 0.00 0.00 0.00 0.00 0.00 0.00 0.00 0.00 0.00 0.00 0.00 0.00 0.00 0.00 0.00 0.00 0.00 0.00 0.00 0.00 0.00 0.00 0.00 0.00 0.00 0.00 0.00 0.00 0.00 0.00 0.00 0.00 0.00 0.00
0.00 0.00 0.00 0.00 0.00 0.00 0.00 0.00 0.00 0.00 0.00 0.00 0.00 0.00 0.00 0.00 0.00 0.00 0.00 0.00 0.00 0.00 0.00 0.00 0.00 0.00 0.00 0.00 0.00 0.00 0.00 0.00 0.00 0.00 0.00 0.00 0.00 0.00 0.00 0.00 0.00 0.00 0.00 0.00 0.00 0.00 0.00 0.00 0.00
0.00 0.00 0.00 0.00 0.00 0.00 0.00 0.00 0.00 0.00 0.00 0.00 0.00 0.00 0.00 0.00 0.00 0.00 0.00 0.00 0.00 0.00 0.00 0.00 0.00 0.00 0.00 0.00 0.00 0.00 0.00 0.00 0.00 0.00 0.00 0.00 0.00 0.00 0.00 0.00 0.00 0.00 0.00 0.00 0.00 0.00 0.00 0.01 0.00
0.00 0.00 0.00 0.00 0.00 0.00 0.00 0.00 0.00 0.00 0.00 0.00 0.00 0.00 0.00 0.00 0.00 0.00 0.00 0.00 0.00 0.00 0.00 0.00 0.00 0.00 0.00 0.00 0.00 0.00 0.00 0.00 0.00 0.00 0.00 0.00 0.00 0.00 0.00 0.00 0.00 0.00 0.00 0.00 0.00 0.01 0.01 0.01 0.00
0.00 0.00 0.00 0.00 0.00 0.00 0.00 0.00 0.00 0.00 0.00 0.00 0.00 0.00 0.00 0.00 0.00 0.00 0.00 0.00 0.00 0.00 0.00 0.00 0.00 0.00 0.00 0.00 0.00 0.00 0.00 0.00 0.00 0.00 0.00 0.00 0.00 0.00 0.00 0.00 0.00 0.00 0.00 0.00 0.00 0.00 0.01 0.01 0.00
0.00 0.00 0.00 0.00 0.00 0.00 0.00 0.00 0.00 0.00 0.00 0.00 0.00 0.00 0.00 0.00 0.00 0.00 0.00 0.00 0.00 0.00 0.00 0.00 0.00 0.00 0.00 0.00 0.00 0.00 0.00 0.00 0.00 0.00 0.00 0.00 0.00 0.00 0.00 0.00 0.00 0.00 0.00 0.00 0.00 0.00 0.01 0.01 0.01
0.00 0.00 0.00 0.00 0.00 0.00 0.00 0.00 0.00 0.00 0.00 0.00 0.00 0.00 0.00 0.00 0.00 0.00 0.00 0.00 0.00 0.00 0.00 0.00 0.00 0.00 0.00 0.00 0.00 0.00 0.00 0.00 0.00 0.00 0.00 0.00 0.00 0.00 0.00 0.00 0.00 0.00 0.00 0.00 0.00 0.00 0.01 0.00 0.00
0.00 0.00 0.00 0.00 0.00 0.00 0.00 0.00 0.00 0.00 0.00 0.00 0.00 0.00 0.00 0.00 0.00 0.00 0.00 0.00 0.00 0.00 0.00 0.00 0.00 0.00 0.00 0.00 0.00 0.00 0.00 0.00 0.00 0.00 0.00 0.00 0.00 0.00 0.00 0.00 0.00 0.00 0.00 0.00 0.00 0.00 0.01 0.00 0.00
0.00 0.00 0.00 0.00 0.00 0.00 0.00 0.00 0.00 0.00 0.00 0.00 0.00 0.00 0.00 0.00 0.00 0.00 0.00 0.00 0.00 0.00 0.00 0.00 0.00 0.00 0.00 0.00 0.00 0.00 0.00 0.00 0.00 0.00 0.00 0.00 0.00 0.00 0.00 0.00 0.00 0.00 0.00 0.00 0.00 0.00 0.00 0.00 0.00
0.00 0.00 0.00 0.00 0.00 0.00 0.00 0.00 0.00 0.00 0.00 0.00 0.00 0.00 0.00 0.00 0.00 0.00 0.00 0.00 0.00 0.00 0.00 0.00 0.00 0.00 0.00 0.00 0.00 0.00 0.00 0.00 0.00 0.00 0.00 0.00 0.00 0.00 0.00 0.00 0.00 0.00 0.00 0.00 0.00 0.00 0.00 0.00 0.00
0.00 0.00 0.00 0.00 0.00 0.00 0.00 0.00 0.00 0.00 0.00 0.00 0.00 0.00 0.00 0.00 0.00 0.00 0.00 0.00 0.00 0.00 0.00 0.00 0.00 0.00 0.00 0.00 0.00 0.00 0.00 0.00 0.00 0.00 0.00 0.00 0.00 0.00 0.00 0.00 0.00 0.00 0.00 0.00 0.00 0.00 0.00 0.00 0.00
0.00 0.00 0.00 0.00 0.00 0.00 0.00 0.00 0.00 0.00 0.00 0.00 0.00 0.00 0.00 0.00 0.00 0.00 0.00 0.00 0.00 0.00 0.00 0.00 0.00 0.00 0.00 0.00 0.00 0.00 0.00 0.00 0.00 0.00 0.00 0.00 0.00 0.00 0.00 0.00 0.00 0.00 0.00 0.00 0.00 0.00 0.00 0.00 0.00
0.00 0.00 0.00 0.00 0.00 0.00 0.00 0.00 0.00 0.00 0.00 0.00 0.00 0.00 0.00 0.00 0.00 0.00 0.00 0.00 0.00 0.00 0.00 0.00 0.00 0.00 0.00 0.00 0.00 0.00 0.00 0.00 0.00 0.00 0.00 0.00 0.00 0.00 0.00 0.00 0.00 0.00 0.00 0.00 0.00 0.00 0.00 0.00 0.00
MSLP
1008.93 1008.68 1009.07 1009.09 1009.96 1010.01 1009.41 1008.95 1008.03 1009.18 1010.07 1010.98 1011.14 1012.22 1014.53 1015.12 1015.48 1017.45 1018.09 1018.06 1017.68 1017.87 1018.01 1017.93 1017.85 1017.69 1017.60 1017.43 1017.32 1017.18 1017.06 1016.95 1016.91 1016.81 1016.66 1016.57 1016.58 1016.51 1016.38 1016.49 1016.40 1016.42 1016.31 1016.09 1015.82 1015.64 1015.53 1015.33 1015.23
1008.45 1008.29 1008.82 1009.12 1010.10 1010.15 1010.08 1009.60 1009.71 1009.88 1011.06 1011.32 1012.31 1013.69 1014.66 1016.41 1016.41 1017.22 1017.81 1018.37 1017.96 1018.37 1018.41 1018.30 1018.12 1017.91 1017.79 1017.65 1017.57 1017.46 1017.33 1017.15 1017.08 1017.01 1016.94 1016.81 1016.58 1016.60 1016.51 1016.39 1016.28 1016.21 1016.20 1016.06 1015.91 1015.71 1015.54 1015.43 1015.35
1008.44 1008.34 1009.14 1009.46 1010.21 1009.96 1009.83 1010.25 1010.90 1010.86 1010.96 1011.64 1013.52 1014.72 1015.93 1016.86 1017.15 1018.03 1018.55 1018.66 1018.45 1018.95 1018.86 1018.75 1018.57 1018.34 1018.21 1018.04 1017.93 1017.84 1017.78 1017.62 1017.50 1017.43 1017.30 1017.13 1016.89 1016.68 1016.51 1016.40 1016.28 1016.10 1015.98 1015.82 1015.70 1015.64 1015.56 1015.45 1015.44
1008.19 1008.70 1008.96 1009.80 1010.02 1009.67 1009.82 1010.31 1010.68 1011.23 1012.33 1013.10 1013.33 1016.20 1017.74 1017.70 1018.86 1019.40 1018.99 1018.62 1019.13 1019.50 1019.35 1019.10 1018.89 1018.67 1018.57 1018.50 1018.42 1018.34 1018.23 1018.10 1017.85 1017.75 1017.50 1017.24 1017.04 1016.83 1016.58 1016.38 1016.16 1016.03 1015.90 1015.72 1015.48 1015.31 1015.20 1015.23 1015.22
1007.92 1008.68 1009.62 1010.54 1010.06 1010.27 1010.30 1010.62 1010.72 1011.62 1013.01 1014.19 1014.42 1018.07 1018.64 1019.16 1019.24 1019.56 1019.59 1019.46 1019.87 1019.95 1019.89 1019.59 1019.44 1019.05 1018.94 1018.91 1018.84 1018.74 1018.60 1018.44 1018.31 1018.16 1017.97 1017.59 1017.34 1017.12 1016.83 1016.38 1016.33 1016.13 1015.87 1015.68 1015.44 1015.22 1014.98 1014.77 1014.66
1008.21 1008.59 1009.95 1011.13 1011.01 1011.19 1011.17 1010.99 1011.59 1012.81 1014.08 1015.24 1016.07 1017.59 1019.23 1019.58 1019.67 1020.11 1020.21 1020.36 1020.53 1020.66 1020.56 1020.41 1020.10 1019.80 1019.46 1019.38 1019.26 1019.13 1018.90 1018.80 1018.69 1018.49 1018.32 1018.12 1017.95 1017.68 1017.34 1017.00 1016.76 1016.30 1015.98 1015.68 1015.33 1015.05 1014.94 1014.79 1014.56
1008.24 1009.11 1009.81 1010.66 1011.47 1012.03 1012.63 1012.08 1012.50 1013.78 1014.69 1015.63 1016.80 1017.77 1019.68 1020.01 1020.20 1020.38 1020.63 1020.77 1020.90 1020.81 1020.80 1020.75 1020.53 1020.40 1020.12 1020.00 1019.72 1019.55 1019.34 1019.18 1019.05 1018.92 1018.68 1018.54 1018.40 1018.22 1018.01 1017.77 1017.51 1017.18 1016.60 1015.97 1015.58 1015.26 1015.06 1014.96 1014.67
1007.12 1008.69 1009.62 1011.24 1012.07 1013.64 1013.35 1013.11 1013.99 1014.86 1015.87 1015.73 1016.01 1018.53 1019.51 1020.04 1020.15 1020.45 1020.85 1021.23 1021.55 1021.57 1021.47 1021.41 1021.17 1020.89 1020.69 1020.39 1020.23 1019.98 1019.75 1019.70 1019.55 1019.29 1019.23 1018.97 1018.84 1018.77 1018.61 1018.21 1017.91 1017.44 1016.96 1016.45 1016.00 1015.54 1015.16 1014.81 1014.55
1006.41 1008.80 1010.74 1011.41 1011.97 1013.78 1013.64 1014.15 1015.58 1016.13 1016.58 1017.08 1017.73 1018.66 1019.46 1019.90 1020.17 1020.73 1021.29 1021.68 1022.01 1022.27 1022.22 1022.21 1022.15 1021.94 1021.61 1021.25 1020.91 1020.72 1020.46 1020.22 1020.18 1019.94 1019.89 1019.70 1019.44 1019.32 1019.20 1018.94 1018.48 1017.97 1017.47 1017.26 1017.05 1016.57 1015.90 1015.38 1014.96
1007.64 1009.85 1010.79 1010.74 1011.88 1013.17 1014.22 1014.89 1016.06 1016.83 1017.90 1018.51 1018.96 1019.53 1019.83 1020.24 1020.76 1021.40 1021.94 1022.45 1022.64 1022.83 1023.04 1023.09 1023.04 1022.92 1022.55 1021.92 1021.78 1021.51 1021.11 1020.83 1020.62 1020.42 1020.45 1020.32 1020.14 1019.91 1019.74 1019.54 1019.06 1018.66 1018.59 1018.11 1017.84 1017.30 1016.44 1015.70 1015.12
1009.12 1010.84 1011.55 1012.25 1012.76 1013.44 1014.84 1016.03 1016.93 1017.46 1018.98 1019.54 1020.05 1020.47 1020.77 1021.09 1021.60 1022.15 1022.66 1023.07 1023.41 1023.46 1023.61 1023.83 1023.75 1023.48 1023.23 1022.85 1022.43 1022.12 1021.75 1021.48 1021.09 1021.51 1021.40 1021.13 1020.80 1020.73 1020.48 1020.20 1019.81 1019.41 1019.52 1019.16 1018.51 1017.79 1017.11 1016.65 1015.93
1010.69 1011.89 1012.29 1013.48 1013.73 1014.41 1015.73 1016.64 1018.13 1018.63 1019.65 1020.07 1020.55 1021.09 1021.59 1022.17 1022.62 1022.90 1023.36 1023.65 1023.94 1024.19 1024.43 1024.56 1024.42 1024.13 1023.85 1023.44 1023.03 1022.85 1022.45 1022.12 1021.92 1022.47 1022.33 1022.05 1022.08 1022.00 1021.81 1021.52 1021.05 1020.84 1020.59 1019.97 1019.27 1018.64 1018.43 1017.45 1016.73
1011.65 1012.84 1013.47 1014.06 1014.58 1015.55 1016.41 1017.78 1018.49 1019.46 1019.94 1020.38 1021.07 1021.79 1022.55 1023.09 1023.48 1023.68 1023.94 1024.29 1024.64 1024.94 1025.13 1025.44 1025.17 1025.08 1024.82 1024.35 1023.90 1023.54 1023.44 1023.05 1023.00 1023.19 1022.94 1023.02 1023.10 1023.37 1023.03 1022.45 1021.94 1021.71 1021.31 1020.73 1020.19 1019.49 1018.69 1018.18 1017.29
1012.42 1013.23 1014.15 1014.74 1015.49 1016.65 1017.15 1018.58 1018.63 1019.96 1020.28 1021.04 1021.74 1022.73 1023.35 1023.84 1024.25 1024.48 1024.92 1025.26 1025.44 1025.63 1026.09 1026.13 1026.21 1026.10 1025.69 1025.27 1024.76 1024.37 1023.92 1023.53 1023.71 1024.02 1024.35 1024.17 1024.09 1023.94 1023.58 1022.97 1022.86 1022.70 1022.22 1021.60 1021.00 1020.17 1019.25 1018.58 1017.92
1012.45 1013.96 1014.86 1015.49 1016.09 1017.01 1017.58 1019.29 1019.66 1019.91 1020.46 1021.41 1022.32 1023.17 1023.89 1024.49 1024.91 1025.37 1025.72 1026.01 1026.29 1026.77 1026.99 1026.82 1026.64 1026.72 1026.40 1026.00 1025.47 1025.12 1024.86 1024.60 1024.67 1024.92 1025.03 1025.08 1024.80 1024.64 1024.33 1023.83 1023.72 1023.41 1022.80 1021.98 1021.17 1020.32 1019.71 1019.13 1018.19
1013.05 1014.23 1015.34 1015.79 1015.99 1016.83 1016.95 1019.33 1019.71 1019.93 1020.81 1021.88 1022.72 1023.57 1024.36 1024.98 1025.40 1025.78 1026.26 1026.84 1027.23 1027.45 1027.46 1027.47 1027.56 1027.56 1027.25 1026.83 1026.37 1025.87 1025.49 1025.52 1025.38 1025.82 1025.82 1025.75 1025.61 1025.28 1024.96 1024.72 1024.34 1023.75 1023.02 1022.36 1021.67 1020.68 1020.00 1019.29 1018.35
1013.34 1014.16 1014.76 1015.74 1015.39 1015.94 1017.25 1019.30 1019.66 1020.02 1020.88 1022.06 1023.03 1023.94 1024.68 1025.43 1025.84 1026.38 1026.85 1027.36 1027.73 1027.91 1028.00 1028.30 1028.40 1028.37 1028.11 1027.63 1027.15 1026.74 1026.08 1025.87 1026.09 1026.42 1026.31 1026.22 1026.11 1025.93 1025.42 1025.11 1024.58 1023.93 1023.30 1022.81 1022.03 1021.29 1020.60 1019.57 1018.59
1012.99 1014.14 1015.11 1015.45 1015.67 1015.51 1017.45 1018.73 1019.50 1020.08 1020.95 1022.25 1023.22 1024.22 1025.03 1025.71 1026.43 1026.85 1027.24 1027.62 1027.97 1028.33 1028.78 1028.99 1029.06 1029.11 1028.88 1028.46 1028.17 1027.63 1027.08 1026.54 1026.50 1026.82 1026.82 1026.70 1026.58 1026.41 1025.78 1025.46 1025.01 1024.32 1023.71 1023.18 1022.51 1021.73 1020.87 1019.87 1018.73
1012.42 1013.63 1015.04 1015.57 1015.54 1016.24 1017.69 1018.88 1019.67 1020.23 1021.18 1022.42 1023.51 1024.42 1025.34 1026.02 1026.71 1027.09 1027.61 1028.03 1028.59 1029.20 1029.35 1029.47 1029.58 1029.69 1029.34 1029.21 1028.83 1028.39 1027.90 1027.41 1027.09 1026.86 1027.18 1027.27 1027.12 1026.75 1026.25 1026.06 1025.41 1024.70 1024.10 1023.63 1022.93 1021.95 1020.99 1019.95 1019.07
1012.80 1013.96 1014.88 1015.33 1015.61 1016.49 1017.85 1018.97 1019.54 1020.12 1021.05 1022.19 1023.54 1024.51 1025.42 1026.13 1026.80 1027.73 1028.22 1028.72 1029.29 1029.73 1029.86 1030.12 1030.21 1030.11 1029.80 1029.60 1029.45 1029.09 1028.39 1027.74 1027.40 1027.30 1027.37 1027.58 1027.58 1027.26 1026.95 1026.73 1026.11 1025.31 1024.51 1023.84 1023.19 1022.36 1021.46 1020.65 1019.74
1013.42 1014.13 1014.61 1015.14 1015.83 1016.55 1017.70 1019.19 1019.70 1020.36 1021.25 1022.43 1023.52 1024.36 1025.36 1026.31 1027.13 1028.01 1028.55 1029.29 1029.76 1030.22 1030.56 1030.62 1030.58 1030.47 1030.10 1030.14 1029.80 1029.41 1029.01 1028.32 1027.97 1028.01 1027.95 1028.01 1028.15 1027.82 1027.46 1027.02 1026.46 1025.82 1025.05 1024.30 1023.61 1022.82 1022.08 1021.13 1020.32
1013.97 1014.25 1014.68 1015.24 1016.13 1016.94 1017.35 1019.29 1019.85 1020.54 1021.53 1022.51 1023.70 1024.60 1025.76 1026.52 1027.31 1027.99 1029.06 1029.89 1030.34 1030.86 1030.86 1030.87 1030.74 1030.58 1030.50 1030.55 1030.37 1030.06 1029.38 1028.89 1028.32 1028.36 1028.45 1028.43 1028.44 1028.16 1027.80 1027.22 1026.67 1026.15 1025.60 1024.95 1024.11 1023.28 1022.63 1021.88 1020.90
1014.22 1014.60 1015.11 1015.44 1016.23 1016.79 1017.35 1018.44 1019.28 1020.44 1021.80 1022.78 1023.92 1024.99 1026.13 1026.86 1027.68 1028.53 1029.67 1030.31 1030.98 1031.10 1031.21 1031.19 1031.06 1030.99 1031.06 1030.95 1030.70 1030.39 1030.08 1029.47 1029.09 1028.50 1028.46 1028.75 1028.56 1028.32 1027.99 1027.38 1026.82 1026.24 1025.81 1025.23 1024.48 1023.69 1022.86 1022.27 1021.62
1014.23 1014.93 1015.40 1015.94 1016.78 1017.49 1016.68 1018.26 1020.28 1020.64 1020.90 1022.74 1024.13 1025.19 1026.27 1027.16 1028.06 1029.01 1029.92 1030.77 1031.27 1031.53 1031.63 1031.68 1031.58 1031.59 1031.44 1031.16 1030.75 1030.66 1030.39 1029.89 1029.73 1029.04 1028.92 1028.96 1028.75 1028.43 1027.94 1027.55 1027.04 1026.52 1025.99 1025.42 1024.73 1024.03 1023.18 1022.48 1021.69
1014.67 1015.48 1016.31 1017.31 1017.54 1017.37 1016.23 1018.54 1021.15 1021.49 1020.86 1022.62 1024.21 1025.49 1026.55 1027.40 1028.44 1029.53 1030.30 1031.00 1031.67 1031.97 1032.14 1031.97 1031.89 1031.75 1031.61 1031.33 1030.71 1030.46 1030.27 1030.07 1030.09 1029.77 1029.47 1029.23 1028.91 1028.51 1028.01 1027.80 1027.37 1026.77 1026.06 1025.54 1024.85 1024.09 1023.33 1022.57 1021.96
1014.87 1015.49 1016.60 1017.30 1017.91 1017.83 1017.48 1020.26 1022.10 1022.28 1022.62 1023.43 1024.49 1025.69 1026.76 1027.77 1029.06 1029.93 1030.76 1031.38 1031.81 1032.18 1032.25 1032.22 1032.10 1031.90 1031.65 1031.34 1030.97 1030.68 1030.27 1030.16 1030.07 1030.14 1029.93 1029.53 1029.07 1028.64 1028.17 1027.99 1027.48 1026.89 1026.17 1025.63 1024.87 1024.16 1023.36 1022.51 1022.02
1015.10 1015.67 1016.24 1017.17 1017.69 1018.73 1019.65 1021.58 1022.51 1022.62 1023.17 1023.86 1024.88 1025.92 1027.16 1028.29 1029.47 1030.33 1030.99 1031.57 1032.03 1032.31 1032.30 1032.34 1032.21 1032.05 1031.70 1031.61 1031.35 1030.88 1030.44 1030.24 1030.33 1030.17 1030.09 1029.72 1029.09 1028.47 1028.43 1028.06 1027.51 1026.96 1026.24 1025.78 1025.09 1024.31 1023.43 1022.64 1021.95
1015.25 1015.90 1016.48 1017.52 1018.83 1019.56 1019.69 1020.89 1021.55 1022.56 1023.16 1023.96 1025.10 1026.28 1027.44 1028.58 1029.63 1030.42 1031.15 1031.74 1032.16 1032.40 1032.30 1032.10 1031.98 1031.94 1031.97 1031.89 1031.85 1031.37 1030.73 1030.45 1030.49 1030.25 1030.16 1029.83 1029.24 1028.95 1028.60 1028.05 1027.46 1026.96 1026.41 1025.91 1025.23 1024.41 1023.39 1022.71 1021.90
1015.59 1015.97 1016.69 1017.68 1018.89 1020.00 1020.84 1020.91 1020.56 1021.47 1022.35 1023.60 1025.01 1026.20 1027.49 1028.60 1029.57 1030.52 1031.27 1031.80 1032.14 1032.30 1032.12 1032.13 1032.22 1032.13 1032.01 1032.05 1032.03 1031.86 1030.99 1030.69 1030.53 1030.51 1030.17 1029.85 1029.43 1029.06 1028.51 1027.95 1027.43 1027.00 1026.70 1026.08 1025.34 1024.50 1023.49 1022.66 1021.93
1015.63 1016.12 1016.87 1018.17 1019.42 1020.26 1020.93 1021.09 1020.98 1021.41 1022.28 1023.65 1025.10 1026.39 1027.70 1028.65 1029.69 1030.53 1031.29 1031.78 1032.10 1032.20 1032.11 1032.25 1032.29 1032.40 1032.06 1032.15 1032.05 1032.19 1031.49 1031.03 1030.81 1030.62 1030.25 1029.78 1029.47 1028.90 1028.44 1027.91 1027.46 1027.17 1026.91 1026.17 1025.43 1024.53 1023.52 1022.64 1022.05
Thickness
5845 5848 5846 5833 5790 5780 5777 5789 5810 5787 5785 5791 5795 5777 5748 5745 5734 5706 5737 5734 5734 5731 5727 5726 5724 5722 5721 5720 5718 5716 5715 5714 5712 5710 5710 5708 5706 5705 5705 5701 5700 5697 5695 5696 5697 5697 5697 5699 5699
5850 5851 5840 5820 5773 5758 5766 5791 5781 5787 5786 5792 5782 5767 5750 5727 5741 5733 5733 5730 5732 5726 5722 5721 5720 5719 5717 5716 5714 5713 5713 5713 5711 5709 5706 5704 5704 5699 5697 5696 5696 5695 5692 5692 5691 5692 5692 5693 5693
5851 5852 5818 5794 5772 5768 5772 5784 5781 5787 5795 5787 5766 5762 5746 5730 5738 5728 5728 5725 5724 5719 5717 5715 5714 5714 5711 5710 5709 5709 5707 5706 5705 5703 5701 5699 5698 5696 5694 5692 5690 5690 5688 5688 5687 5685 5685 5685 5686
5847 5833 5822 5781 5775 5796 5792 5789 5793 5786 5783 5778 5775 5737 5733 5739 5721 5717 5720 5722 5717 5711 5709 5709 5709 5708 5705 5704 5703 5701 5700 5698 5697 5696 5697 5696 5694 5692 5690 5689 5688 5685 5683 5682 5682 5683 5683 5681 5680
5845 5824 5788 5777 5781 5787 5796 5796 5795 5782 5772 5762 5762 5720 5716 5721 5722 5717 5714 5713 5708 5705 5702 5702 5701 5701 5700 5698 5696 5695 5693 5692 5689 5688 5687 5686 5686 5686 5682 5683 5680 5679 5678 5676 5675 5675 5676 5676 5677
5817 5816 5771 5759 5768 5780 5788 5799 5788 5769 5759 5751 5741 5726 5711 5719 5714 5709 5707 5704 5699 5696 5694 5692 5692 5693 5693 5691 5690 5687 5686 5683 5680 5679 5676 5674 5673 5672 5671 5669 5668 5668 5668 5667 5667 5666 5664 5664 5665
5811 5793 5776 5773 5766 5768 5771 5790 5779 5762 5750 5740 5739 5715 5707 5707 5709 5706 5701 5698 5694 5692 5690 5688 5688 5687 5686 5683 5682 5681 5679 5677 5672 5670 5668 5663 5662 5659 5656 5654 5652 5650 5650 5652 5653 5653 5652 5652 5653
5831 5803 5785 5771 5759 5747 5772 5779 5773 5755 5737 5753 5748 5701 5693 5703 5708 5705 5700 5692 5686 5682 5682 5679 5679 5679 5678 5676 5674 5673 5670 5666 5663 5659 5655 5652 5650 5642 5638 5637 5635 5635 5633 5635 5634 5638 5640 5641 5643
5849 5781 5757 5769 5764 5754 5774 5765 5764 5757 5739 5734 5727 5714 5709 5708 5705 5698 5690 5685 5681 5674 5672 5670 5667 5667 5667 5664 5663 5661 5657 5652 5649 5649 5643 5634 5630 5625 5620 5616 5614 5613 5611 5614 5612 5614 5618 5622 5625
5813 5771 5779 5794 5784 5768 5766 5761 5753 5740 5725 5716 5711 5710 5706 5701 5693 5685 5679 5673 5670 5668 5667 5661 5657 5655 5654 5652 5649 5646 5643 5637 5633 5633 5629 5621 5611 5605 5598 5593 5591 5589 5590 5589 5588 5590 5596 5601 5606
5804 5775 5784 5782 5783 5775 5757 5745 5742 5728 5705 5705 5696 5694 5693 5688 5681 5674 5671 5667 5661 5659 5659 5654 5647 5645 5643 5639 5635 5631 5627 5621 5617 5611 5604 5599 5593 5585 5576 5571 5568 5566 5562 5561 5563 5568 5574 5576 5581
5781 5785 5784 5772 5773 5763 5746 5744 5723 5717 5706 5707 5700 5693 5686 5677 5669 5665 5661 5659 5655 5652 5648 5643 5636 5634 5629 5626 5622 5617 5612 5605 5599 5590 5584 5577 5567 5557 5547 5542 5540 5535 5533 5534 5536 5538 5540 5548 5553
5777 5774 5775 5772 5766 5754 5747 5728 5718 5708 5708 5705 5695 5685 5676 5668 5662 5659 5657 5653 5647 5642 5637 5630 5624 5620 5615 5611 5606 5601 5593 5586 5579 5570 5562 5553 5542 5528 5521 5516 5510 5503 5500 5501 5503 5506 5511 5514 5522
5778 5771 5764 5761 5755 5744 5734 5723 5720 5704 5706 5695 5685 5673 5666 5659 5653 5650 5647 5641 5636 5632 5622 5618 5611 5605 5601 5595 5590 5582 5575 5568 5558 5546 5533 5525 5514 5504 5496 5489 5479 5473 5468 5466 5466 5471 5476 5481 5488
5777 5751 5753 5750 5747 5734 5732 5705 5699 5705 5700 5685 5675 5669 5661 5653 5648 5640 5638 5633 5626 5617 5611 5605 5599 5592 5586 5579 5573 5564 5556 5549 5539 5525 5511 5497 5488 5477 5468 5461 5451 5446 5444 5444 5444 5445 5445 5447 5455
5756 5747 5721 5739 5742 5733 5727 5685 5700 5701 5689 5675 5670 5663 5655 5648 5641 5637 5631 5622 5613 5605 5600 5594 5584 5577 5570 5562 5555 5548 5540 5529 5519 5503 5490 5477 5466 5456 5446 5437 5431 5429 5428 5427 5427 5429 5428 5429 5433
5743 5715 5724 5722 5741 5735 5716 5682 5694 5696 5686 5672 5664 5655 5649 5641 5635 5630 5621 5612 5604 5597 5590 5581 5570 5563 5555 5547 5540 5531 5525 5514 5499 5484 5473 5462 5451 5438 5429 5419 5414 5412 5412 5409 5408 5407 5406 5410 5414
5733 5719 5713 5715 5730 5730 5699 5685 5691 5690 5681 5666 5659 5650 5641 5635 5628 5624 5614 5607 5597 5587 5578 5568 5558 5549 5540 5532 5523 5514 5505 5496 5483 5469 5457 5449 5437 5424 5414 5404 5397 5395 5395 5391 5388 5386 5387 5390 5396
5756 5731 5709 5718 5733 5717 5699 5687 5685 5685 5677 5662 5654 5644 5635 5629 5623 5618 5607 5598 5585 5575 5566 5559 5549 5538 5529 5519 5512 5501 5491 5481 5470 5460 5445 5434 5423 5412 5401 5391 5386 5383 5381 5376 5373 5372 5373 5375 5377
5750 5724 5718 5726 5735 5718 5696 5685 5687 5686 5677 5664 5652 5640 5631 5624 5616 5605 5597 5586 5574 5565 5556 5546 5536 5526 5517 5505 5494 5484 5476 5467 5457 5447 5435 5423 5411 5401 5390 5381 5376 5374 5372 5367 5362 5359 5358 5356 5357
5736 5726 5726 5717 5721 5717 5696 5674 5677 5684 5673 5661 5651 5640 5629 5618 5607 5598 5590 5575 5563 5554 5543 5534 5523 5513 5506 5494 5482 5472 5461 5453 5445 5434 5424 5413 5400 5391 5381 5374 5369 5365 5361 5357 5351 5347 5343 5342 5341
5720 5735 5729 5720 5697 5671 5693 5647 5668 5669 5659 5653 5643 5631 5622 5614 5604 5594 5579 5564 5551 5540 5532 5522 5513 5503 5492 5482 5470 5459 5452 5443 5435 5424 5413 5402 5392 5383 5374 5367 5361 5355 5349 5346 5340 5334 5328 5322 5324
5719 5731 5719 5717 5698 5693 5686 5666 5664 5666 5648 5644 5636 5629 5616 5605 5594 5582 5563 5552 5539 5531 5522 5512 5503 5493 5481 5470 5459 5448 5437 5429 5420 5415 5406 5394 5385 5376 5367 5361 5354 5347 5341 5336 5332 5326 5319 5313 5310
5734 5719 5710 5705 5685 5657 5686 5671 5643 5651 5657 5642 5632 5622 5609 5597 5583 5571 5556 5543 5532 5521 5510 5500 5491 5481 5470 5459 5450 5437 5427 5419 5407 5403 5396 5388 5379 5370 5363 5355 5348 5341 5335 5330 5326 5319 5313 5308 5306
5718 5696 5662 5656 5654 5653 5704 5660 5634 5639 5658 5640 5623 5610 5598 5588 5574 5558 5546 5533 5523 5511 5500 5490 5480 5470 5460 5450 5442 5431 5420 5410 5398 5390 5385 5379 5372 5366 5359 5350 5343 5335 5330 5324 5319 5316 5309 5305 5301
5707 5697 5655 5652 5646 5656 5685 5639 5626 5637 5637 5629 5619 5605 5594 5582 5564 5553 5539 5525 5514 5504 5492 5480 5471 5462 5451 5442 5432 5423 5414 5401 5390 5380 5373 5369 5364 5358 5352 5344 5337 5331 5325 5319 5314 5310 5307 5303 5297
5697 5681 5698 5671 5673 5652 5645 5634 5635 5636 5628 5624 5613 5601 5588 5574 5557 5544 5530 5516 5504 5493 5484 5472 5462 5452 5443 5431 5421 5413 5404 5394 5381 5373 5365 5360 5357 5351 5344 5337 5332 5326 5321 5315 5310 5306 5302 5300 5296
5699 5699 5661 5658 5640 5641 5655 5633 5630 5628 5626 5623 5610 5597 5584 5566 5549 5535 5520 5507 5495 5485 5476 5466 5456 5445 5433 5421 5409 5401 5395 5385 5373 5366 5358 5353 5350 5343 5337 5332 5328 5322 5315 5310 5306 5303 5300 5295 5295
5682 5675 5677 5665 5648 5625 5617 5629 5648 5639 5633 5620 5604 5590 5568 5552 5539 5526 5513 5500 5489 5479 5470 5459 5446 5436 5425 5412 5400 5389 5386 5377 5367 5358 5352 5347 5343 5337 5332 5328 5324 5317 5310 5305 5300 5298 5298 5294 5290
5690 5679 5671 5636 5638 5636 5617 5613 5638 5629 5622 5607 5594 5580 5560 5546 5533 5519 5505 5493 5483 5472 5462 5449 5437 5426 5418 5405 5393 5379 5375 5367 5359 5351 5346 5342 5337 5333 5328 5323 5317 5310 5303 5300 5296 5294 5294 5294 5289